Weather History for Keahole Point, HI

Change the Weather History Date:

Wednesday, December 26, 2012

  Actual Average Record
Temperature  
Mean Temperature 77 °F -  
Max Temperature 82 °F 79 °F 87 °F (1988)
Min Temperature 72 °F 67 °F 64 °F (1988)
Cooling Degree Days 12    
Growing Degree Days 27 (Base 50)    
Moisture  
Dew Point 66 °F    
Average Humidity 70    
Maximum Humidity 83    
Minimum Humidity 54    
Precipitation  
Precipitation 0.01 in - - ()
Sea Level Pressure  
Sea Level Pressure 29.99 in    
Wind  
Wind Speed 8 mph (South)    
Max Wind Speed 12 mph    
Max Gust Speed -    
Visibility 10 miles    
Events Rain    
Averages and records for this station are not official NWS values.
T = Trace of Precipitation, MM = Missing Value Source: NWS Daily Summary

Daily Weather History Graph

Daily Weather History Graph

Search for Another Location

Airport:

Trip Planner

Search our weather history database for the weather conditions in past years. The results will help you decide how hot, cold, wet, or windy it might be!

Date:

Astronomy

Dec. 26, 2012 Rise Set
Actual Time 6:56 AM HST 5:53 PM HST
Civil Twilight 6:32 AM HST 6:17 PM HST
Nautical Twilight 6:05 AM HST 6:45 PM HST
Astronomical Twilight 5:38 AM HST 7:12 PM HST
Moon 4:52 PM HST (12/26) 5:32 AM HST (12/26)
Length of Visible Light 11h 44m
Length of Day
10h 56m
Waxing Gibbous, 98% of the Moon is Illuminated
Dec 26
Waxing Gibbous
Dec 28
Full
Jan 4
Last Quarter
Jan 11
New
Jan 18
First Quarter

Hourly Weather History & Observations

Time (HST) Temp. Heat Index Dew Point Humidity Pressure Visibility Wind Dir Wind Speed Gust Speed Precip Events Conditions
12:11 AM 75.2 °F - 69.8 °F 83% 30.02 in 10.0 mi WSW 10.4 mph - 0.01 in Rain Rain
12:32 AM 75.2 °F - 68.0 °F 78% 30.01 in 10.0 mi WSW 11.5 mph - 0.01 in   Overcast
12:53 AM 75.0 °F - 68.0 °F 79% 30.02 in 10.0 mi SW 11.5 mph - 0.01 in   Mostly Cloudy
1:53 AM 75.9 °F - 68.0 °F 76% 30.00 in 10.0 mi SW 9.2 mph - N/A   Overcast
2:53 AM 75.0 °F - 68.0 °F 79% 29.99 in 10.0 mi SSW 4.6 mph - N/A   Mostly Cloudy
3:40 AM 73.4 °F - 68.0 °F 83% 29.97 in 10.0 mi SE 4.6 mph - N/A   Overcast
3:53 AM 73.9 °F - 66.9 °F 79% 29.98 in 10.0 mi ESE 4.6 mph - N/A   Scattered Clouds
4:53 AM 73.0 °F - 66.9 °F 81% 29.98 in 10.0 mi ESE 9.2 mph - N/A   Clear
5:53 AM 73.0 °F - 66.0 °F 79% 29.99 in 10.0 mi ESE 8.1 mph - N/A   Clear
6:53 AM 72.0 °F - 64.9 °F 78% 30.01 in 10.0 mi ESE 5.8 mph - N/A   Clear
7:53 AM 73.0 °F - 66.0 °F 79% 30.02 in 10.0 mi ENE 3.5 mph - N/A   Clear
8:53 AM 77.0 °F - 66.9 °F 71% 30.03 in 10.0 mi West 3.5 mph - N/A   Clear
9:53 AM 79.0 °F - 66.0 °F 64% 30.03 in 10.0 mi NW 3.5 mph - N/A   Clear
10:53 AM 80.1 °F 81.5 °F 63.0 °F 56% 30.01 in 10.0 mi Variable 3.5 mph - N/A   Clear
11:53 AM 80.1 °F 82.1 °F 66.0 °F 62% 29.99 in 10.0 mi West 6.9 mph - N/A   Clear
12:53 PM 80.1 °F 81.9 °F 64.9 °F 60% 29.96 in 10.0 mi West 6.9 mph - N/A   Clear
1:53 PM 82.0 °F 83.4 °F 64.0 °F 54% 29.92 in 10.0 mi WSW 9.2 mph - N/A   Clear
2:53 PM 82.0 °F 83.4 °F 64.0 °F 54% 29.91 in 10.0 mi SW 6.9 mph - N/A   Clear
3:53 PM 81.0 °F 82.5 °F 64.0 °F 56% 29.92 in 10.0 mi SSW 8.1 mph - N/A   Overcast
4:53 PM 80.1 °F 81.9 °F 64.9 °F 60% 29.94 in 10.0 mi South 9.2 mph - N/A   Clear
5:53 PM 78.1 °F - 64.9 °F 64% 29.96 in 10.0 mi South 10.4 mph - N/A   Clear
6:53 PM 77.0 °F - 64.9 °F 66% 29.98 in 10.0 mi South 9.2 mph - N/A   Clear
7:53 PM 75.9 °F - 64.9 °F 69% 30.00 in 10.0 mi SE 6.9 mph - N/A   Partly Cloudy
8:53 PM 75.0 °F - 64.0 °F 69% 30.01 in 10.0 mi East 4.6 mph - N/A   Clear
9:53 PM 75.0 °F - 64.0 °F 69% 30.03 in 10.0 mi SE 5.8 mph - N/A   Clear
10:53 PM 73.9 °F - 63.0 °F 68% 30.03 in 10.0 mi ESE 6.9 mph - N/A   Clear
11:53 PM 73.0 °F - 64.0 °F 73% 30.02 in 10.0 mi ESE 5.8 mph - N/A   Clear